San Francisco, CA

5:47 AM PST on January 26, 2015 (GMT -0800)
SOMA - Near Van Ness | Change Station
CLOSE
Current Station
Personal Weather Station
Location: San Francisco, CA
Elevation: 49 ft
Nearby Weather Stations

Elev 49 ft 37.77 °N, 122.42 °W | Updated 45 seconds ago

Partly Cloudy
Partly Cloudy
51.2 °F
Feels Like 51.2 °F
N
1.0
Wind Variable Wind from East
Gusts 3.0 mph

Today
High -- | Low -- °F
--% Chance of Precip.
Yesterday
High -- | Low -- °F
Precip. -- in
7:18 AM 5:26 PM
Waxing Crescent, 43% visible
Pressure 30.02 in
Visibility 9.0 miles
Clouds Few 22000 ft
Dew Point 46 °F
Humidity 81%
Rainfall 0.00 in
Snow Depth Not available.
UV 0 out of 12
Pollen 6.10 out of 12
Air Quality Not available.
Flu Activity Not available.
METAR KSFO 261256Z 15004KT 9SM FEW220 11/10 A3002 RMK AO2 SLP166 T01060100

More Conditions Fewer Conditions

Pressure 30.02 in
Visibility 9.0 miles
Clouds Few 22000 ft
Dew Point 46 °F
Humidity 81%
Rainfall 0.00 in
Snow Depth Not available.
UV 0 out of 12
Pollen 6.10 out of 12
Air Quality Not available.
Flu Activity Not available.
METAR KSFO 261256Z 15004KT 9SM FEW220 11/10 A3002 RMK AO2 SLP166 T01060100

More Conditions Fewer Conditions

10-Day Weather Forecast

Almanac

Astronomy

Jan. 26, 2015 Rise Set
Actual Time
Civil Twilight
Nautical Twilight
Astronomical Twilight
Moon
Length of Visible Light
Length of Day
Tomorrow will be .
, % of the Moon is Illuminated

Today's Extremes

State Highs State Lows

Community

WunderPhotos

Upload Photos

1,790,200 photos uploaded!

WunderBlogs® & News

Nearby

Air Quality

  Air Quality AQ Index Pollutant
Not available.

Snow Depth

Station Depth Elevation

Earthquake Activity

City Distance Mag. Time & Date
Minimum magnitude displayed is 2.5.

Coastal Water Temperatures

Place Temperature

Nearby Weather Stations